JILIN-01-07

Satellite information

Favourite Embed

Satellite Type and Status

PAYLOADIN ORBIT

Key statistics

Satellite JILIN-01-07 at a glance.

Uptime

2885

Days in orbit

Revolutions

≈ 15.3

Per day

Orbit

SSO

Sun Synchronous Orbit

Inclination

97.2

Latest

Satellite identification and parameters

Extended collection of information and parameters for JILIN-01-07.

Object identification

Identified? True

Debris? False

Object name: JILIN-01-07

International designator: 2018-008E

Object number (NORAD): 43159

Object ID (CCSDS): 43159

Country: PEOPLES REPUBLIC OF CHINA (PRC)

Current information (Y/N): Y

RCS size: MEDIUM

Orbital parameters

Period: 94.045 minutes

Inclination: 97.1939 deg

SMA: 6850.399 km

Apoapsis: 478.723 km

Periapsis: 465.806 km

RAAN: 6.4229 deg

Eccentricy: 0.0009428

Argument of periapsis: 21.2448 deg

Mean anomaly: 338.9184 deg

Mean motion: 15.31189457 rev/day

Mean motion (dot): 0.000126 rev/day2

B* drag term: 0.00041990564 1/REarth

Two-line elements (TLE)

Creation date: Dec. 12, 2025, 10:14 a.m.

Reference frame: TEME

Reference center: EARTH

Epoch: Dec. 12, 2025, 5:12 a.m. UTC

TLE line 0: 0 JILIN-01-07

TLE line 1: 1 43159U 18008E 25346.21710148 .00012600 00000-0 41991-3 0 9999

TLE line 2: 2 43159 97.1939 6.4229 0009428 21.2448 338.9184 15.31189457436350

Live tracking on map

Real-time ground track for satellite JILIN-01-07.

In-orbit conjunctions

There are no conjunctions computed for JILIN-01-07, at the moment. Check back to stay up to date, as we update our databases every day.

Go to all conjunctions

Associated space launch

Jilin-1 is a series of Chinese commercial remote sensing satellites. These two satellites are sharing the ride with several cubesats.

JILIN-01-07 was lifted into orbit during the mission ‘Long March 11 | Jilin-1-07 (Deqing-1), Jilin-1-08’, on board a Long March 11 space rocket.

The launch took place on Jan. 19, 2018, 4:12 a.m. from Launch Area 95A.

For more information about the launch, click the button.

Launch to space Long March 11 | Jilin-1-07 (Deqing-1), Jilin-1-08
Long March 11 | Jilin-1-07 (Deqing-1), Jilin-1-08

Agency: N/A

Status: Launch Successful

Launch date: Jan. 19, 2018, 4:12 a.m. UTC

Rocket: Long March 11

Launch pad: Launch Area 95A

Location: Jiuquan Satellite Launch Center, People's Republic of China

...

Latest news about this satellite

There are no fresh news available about this satellite. Check back as we update our databases every day.


Newsletter sign-up

Weekly statistics, charts and insights to help you stay on top of the space industry.